�������l�o���
Date,Time,MP-1(��Sv/h),MP-2(��Sv/h),MP-3(��Sv/h),MP-4(��Sv/h),MP-5(��Sv/h),MP-6(��Sv/h),MP-7(��Sv/h),����,����(m/s),���J
2022/12/01,00:00,0.154,0.138,0.216,0.212,0.214,0.122,0.078,�k,5.8,��
2022/12/01,00:10,0.153,0.138,0.216,0.211,0.213,0.122,0.078,�k�k��,7.0,��
2022/12/01,00:20,0.154,0.139,0.216,0.211,0.213,0.121,0.077,�k�k��,6.8,��
2022/12/01,00:30,0.154,0.138,0.215,0.212,0.214,0.122,0.077,�k�k��,6.5,��
2022/12/01,00:40,0.153,0.138,0.215,0.211,0.212,0.121,0.078,�k�k��,6.4,��
2022/12/01,00:50,0.154,0.138,0.216,0.210,0.213,0.121,0.077,�k�k��,5.5,��
2022/12/01,01:00,0.154,0.138,0.217,0.211,0.213,0.121,0.077,�k�k��,6.7,��
2022/12/01,01:10,0.152,0.138,0.216,0.212,0.213,0.121,0.077,�k�k��,5.9,��
2022/12/01,01:20,0.154,0.138,0.216,0.210,0.214,0.121,0.078,�k�k��,6.0,��
2022/12/01,01:30,0.154,0.138,0.216,0.211,0.212,0.122,0.078,�k�k��,5.2,��
2022/12/01,01:40,0.153,0.137,0.216,0.211,0.212,0.121,0.077,�k�k��,3.5,��
2022/12/01,01:50,0.153,0.137,0.215,0.211,0.213,0.121,0.078,�k�k��,2.4,��
2022/12/01,02:00,0.153,0.138,0.215,0.211,0.213,0.122,0.078,�k�k��,3.4,��
2022/12/01,02:10,0.153,0.138,0.216,0.212,0.212,0.121,0.077,�k,4.5,��
2022/12/01,02:20,0.154,0.138,0.215,0.211,0.213,0.121,0.078,�k,5.0,��
2022/12/01,02:30,0.154,0.138,0.216,0.210,0.213,0.121,0.077,�k,5.5,��
2022/12/01,02:40,0.153,0.137,0.215,0.211,0.212,0.121,0.078,�k,5.8,��
2022/12/01,02:50,0.153,0.138,0.216,0.211,0.213,0.121,0.077,�k,5.7,��
2022/12/01,03:00,0.154,0.138,0.215,0.211,0.212,0.121,0.076,�k�k��,4.5,��
2022/12/01,03:10,0.153,0.138,0.216,0.211,0.213,0.121,0.077,�k�k��,4.4,��
2022/12/01,03:20,0.152,0.137,0.215,0.211,0.213,0.121,0.077,�k,2.8,��
2022/12/01,03:30,0.153,0.137,0.215,0.211,0.213,0.121,0.077,�k�k��,2.5,��
2022/12/01,03:40,0.154,0.137,0.215,0.210,0.213,0.121,0.077,�k�k��,2.9,��
2022/12/01,03:50,0.152,0.136,0.215,0.212,0.214,0.121,0.077,�k,3.3,��
2022/12/01,04:00,0.152,0.138,0.215,0.209,0.213,0.121,0.078,�k�k��,4.1,��
2022/12/01,04:10,0.153,0.138,0.215,0.210,0.212,0.121,0.077,�k,3.7,��
2022/12/01,04:20,0.152,0.137,0.215,0.211,0.212,0.121,0.077,�k,3.7,��
2022/12/01,04:30,0.154,0.137,0.214,0.210,0.211,0.121,0.077,�k�k��,3.5,��
2022/12/01,04:40,0.153,0.137,0.215,0.210,0.212,0.120,0.078,�k,4.1,��
2022/12/01,04:50,0.153,0.138,0.214,0.210,0.213,0.121,0.078,�k,3.8,��
2022/12/01,05:00,0.152,0.138,0.214,0.211,0.212,0.120,0.077,�k�k��,3.4,��
2022/12/01,05:10,0.152,0.138,0.215,0.211,0.211,0.121,0.078,�k�k��,2.6,��
2022/12/01,05:20,0.154,0.137,0.215,0.211,0.212,0.121,0.077,�k�k��,0.9,��
2022/12/01,05:30,0.153,0.139,0.215,0.211,0.212,0.121,0.077,�k�k��,1.8,��
2022/12/01,05:40,0.152,0.137,0.214,0.211,0.212,0.121,0.078,�k�k��,2.7,��
2022/12/01,05:50,0.153,0.137,0.215,0.210,0.213,0.120,0.077,�k�k��,2.6,��
2022/12/01,06:00,0.152,0.137,0.216,0.211,0.212,0.120,0.077,�k��,2.5,��
2022/12/01,06:10,0.152,0.136,0.215,0.210,0.213,0.121,0.077,�k�k��,3.2,��
2022/12/01,06:20,0.153,0.138,0.215,0.210,0.212,0.120,0.077,�k�k��,3.1,��
2022/12/01,06:30,0.152,0.137,0.215,0.211,0.213,0.121,0.078,�k�k��,3.2,��
2022/12/01,06:40,0.152,0.137,0.215,0.211,0.212,0.120,0.077,�k�k��,3.5,��
2022/12/01,06:50,0.152,0.138,0.215,0.210,0.212,0.121,0.077,�k�k��,4.1,��
2022/12/01,07:00,0.152,0.138,0.213,0.211,0.212,0.120,0.078,�k�k��,4.0,��
2022/12/01,07:10,0.152,0.137,0.215,0.212,0.212,0.121,0.077,�k�k��,3.9,��
2022/12/01,07:20,0.152,0.137,0.214,0.211,0.213,0.120,0.077,�k�k��,3.7,��
2022/12/01,07:30,0.152,0.137,0.215,0.212,0.212,0.121,0.077,�k�k��,3.8,��
2022/12/01,07:40,0.152,0.136,0.214,0.211,0.213,0.121,0.077,�k�k��,3.4,��
2022/12/01,07:50,0.153,0.137,0.214,0.211,0.212,0.121,0.077,�k��,3.2,��
2022/12/01,08:00,0.153,0.137,0.214,0.210,0.213,0.121,0.077,�k�k��,3.2,��
2022/12/01,08:10,0.151,0.137,0.214,0.210,0.211,0.120,0.077,�k�k��,3.3,��
2022/12/01,08:20,0.153,0.138,0.215,0.211,0.212,0.121,0.077,�k��,3.9,��
2022/12/01,08:30,0.154,0.137,0.214,0.211,0.212,0.121,0.076,�k��,4.1,��
2022/12/01,08:40,0.152,0.137,0.215,0.211,0.212,0.121,0.077,�k��,3.9,�L
2022/12/01,08:50,0.152,0.137,0.215,0.210,0.212,0.120,0.077,�k�k��,3.1,�L
2022/12/01,09:00,0.153,0.138,0.214,0.211,0.213,0.121,0.077,�k�k��,2.0,�L
2022/12/01,09:10,0.152,0.137,0.215,0.211,0.212,0.121,0.077,�k,2.3,�L
2022/12/01,09:20,0.152,0.138,0.214,0.212,0.213,0.122,0.077,�k,2.4,�L
2022/12/01,09:30,0.154,0.138,0.216,0.212,0.212,0.122,0.078,�k,3.9,�L
2022/12/01,09:40,0.153,0.138,0.216,0.211,0.214,0.122,0.079,�k�k��,4.3,�L
2022/12/01,09:50,0.153,0.138,0.216,0.211,0.215,0.122,0.079,�k,3.3,�L
2022/12/01,10:00,0.154,0.138,0.217,0.212,0.214,0.121,0.078,�k,4.5,�L
2022/12/01,10:10,0.154,0.140,0.217,0.214,0.214,0.122,0.079,�k�k��,4.3,�L
2022/12/01,10:20,0.156,0.141,0.218,0.214,0.217,0.125,0.081,�k,4.2,�L
2022/12/01,10:30,0.155,0.141,0.219,0.215,0.216,0.125,0.081,�k�k��,4.6,�L
2022/12/01,10:40,0.156,0.141,0.219,0.216,0.216,0.125,0.081,�k�k��,4.0,�L
2022/12/01,10:50,0.156,0.141,0.219,0.215,0.216,0.125,0.081,�k�k��,4.6,�L
2022/12/01,11:00,0.156,0.142,0.220,0.218,0.219,0.126,0.082,�k�k��,3.3,�L
2022/12/01,11:10,0.158,0.144,0.221,0.218,0.218,0.127,0.083,�k�k��,3.6,�L
2022/12/01,11:20,0.158,0.142,0.222,0.218,0.219,0.127,0.082,�k��,3.6,�L
2022/12/01,11:30,0.158,0.144,0.221,0.216,0.219,0.126,0.083,�k��,4.4,�L
2022/12/01,11:40,0.157,0.142,0.220,0.216,0.216,0.126,0.082,�k��,2.5,�L
2022/12/01,11:50,0.158,0.141,0.220,0.216,0.217,0.126,0.082,�k��,3.4,�L
2022/12/01,12:00,0.157,0.142,0.220,0.216,0.217,0.126,0.082,�k��,2.6,�L
2022/12/01,12:10,0.157,0.142,0.220,0.216,0.217,0.127,0.082,�k�k��,2.9,�L
2022/12/01,12:20,0.158,0.142,0.220,0.217,0.218,0.127,0.082,���k��,1.9,�L
2022/12/01,12:30,0.156,0.142,0.220,0.215,0.217,0.126,0.082,�k��,1.6,�L
2022/12/01,12:40,0.156,0.142,0.220,0.215,0.215,0.125,0.082,�k��,2.6,�L
2022/12/01,12:50,0.156,0.141,0.219,0.216,0.216,0.125,0.081,�k��,2.7,�L
2022/12/01,13:00,0.155,0.141,0.218,0.214,0.214,0.124,0.080,�k��,3.0,�L
2022/12/01,13:10,0.154,0.140,0.218,0.212,0.215,0.123,0.080,�k��,2.6,�L
2022/12/01,13:20,0.155,0.140,0.218,0.214,0.215,0.122,0.080,�k,2.3,�L
2022/12/01,13:30,0.155,0.139,0.217,0.213,0.215,0.123,0.079,�k��,2.1,�L
2022/12/01,13:40,0.153,0.140,0.216,0.211,0.213,0.122,0.078,�k��,2.3,�L
2022/12/01,13:50,0.155,0.139,0.216,0.214,0.215,0.122,0.080,�k��,2.5,�L
2022/12/01,14:00,0.154,0.138,0.217,0.213,0.215,0.123,0.079,�k��,2.3,�L
2022/12/01,14:10,0.154,0.139,0.217,0.212,0.213,0.122,0.079,�k��,2.1,�L
2022/12/01,14:20,0.154,0.138,0.216,0.211,0.215,0.122,0.078,�k��,2.4,��
2022/12/01,14:30,0.154,0.139,0.216,0.212,0.213,0.122,0.078,�k��,3.0,��
2022/12/01,14:40,0.153,0.139,0.216,0.212,0.212,0.121,0.078,�k��,2.7,�L
2022/12/01,14:50,0.153,0.138,0.215,0.211,0.214,0.121,0.078,�k�k��,3.1,�L
2022/12/01,15:00,0.153,0.138,0.215,0.211,0.212,0.121,0.078,�k��,3.1,�L
2022/12/01,15:10,0.153,0.139,0.215,0.212,0.213,0.122,0.077,�k��,2.9,�L
2022/12/01,15:20,0.153,0.138,0.216,0.212,0.214,0.121,0.078,�k��,3.6,�L
2022/12/01,15:30,0.154,0.138,0.216,0.212,0.212,0.121,0.078,�k��,4.9,�L
2022/12/01,15:40,0.153,0.140,0.215,0.211,0.213,0.122,0.079,�k��,5.2,�L
2022/12/01,15:50,0.154,0.139,0.216,0.212,0.213,0.122,0.078,�k��,5.5,�L
2022/12/01,16:00,0.154,0.139,0.218,0.212,0.214,0.121,0.077,�k��,5.6,�L
2022/12/01,16:10,0.155,0.140,0.218,0.213,0.214,0.123,0.079,�k��,5.0,�L
2022/12/01,16:20,0.157,0.140,0.218,0.216,0.217,0.124,0.081,�k��,5.3,�L
2022/12/01,16:30,0.158,0.143,0.220,0.216,0.217,0.125,0.082,�k��,5.4,�L
2022/12/01,16:40,0.158,0.143,0.220,0.216,0.217,0.127,0.083,�k��,5.5,�L
2022/12/01,16:50,0.157,0.143,0.220,0.216,0.216,0.126,0.082,�k��,5.4,�L
2022/12/01,17:00,0.156,0.142,0.219,0.214,0.216,0.125,0.081,�k��,5.2,�L
2022/12/01,17:10,0.156,0.140,0.217,0.215,0.214,0.124,0.080,�k��,5.3,�L
2022/12/01,17:20,0.155,0.140,0.218,0.212,0.215,0.125,0.080,�k��,5.7,�L
2022/12/01,17:30,0.155,0.139,0.217,0.212,0.215,0.123,0.080,�k��,6.2,�L
2022/12/01,17:40,0.154,0.139,0.216,0.213,0.214,0.123,0.079,�k��,6.0,��
2022/12/01,17:50,0.154,0.139,0.216,0.212,0.212,0.122,0.080,�k��,4.6,��
2022/12/01,18:00,0.153,0.139,0.215,0.211,0.214,0.122,0.078,�k��,4.7,��
2022/12/01,18:10,0.154,0.138,0.216,0.211,0.212,0.122,0.078,�k��,5.2,��
2022/12/01,18:20,0.153,0.138,0.216,0.211,0.213,0.122,0.078,�k��,5.4,��
2022/12/01,18:30,0.152,0.138,0.215,0.211,0.212,0.121,0.078,�k��,5.9,��
2022/12/01,18:40,0.152,0.138,0.214,0.211,0.212,0.121,0.077,�k��,5.1,��
2022/12/01,18:50,0.153,0.137,0.213,0.210,0.211,0.121,0.078,�k��,5.1,��
2022/12/01,19:00,0.153,0.137,0.215,0.211,0.212,0.121,0.077,���k��,4.8,��
2022/12/01,19:10,0.152,0.137,0.214,0.212,0.212,0.120,0.077,�k��,4.8,��
2022/12/01,19:20,0.151,0.137,0.214,0.210,0.212,0.121,0.077,�k��,4.3,��
2022/12/01,19:30,0.152,0.137,0.214,0.209,0.211,0.121,0.077,�k��,4.1,��
2022/12/01,19:40,0.152,0.137,0.214,0.210,0.212,0.120,0.077,�k��,5.3,��
2022/12/01,19:50,0.152,0.137,0.214,0.211,0.211,0.121,0.077,�k��,5.5,��
2022/12/01,20:00,0.152,0.136,0.214,0.210,0.210,0.120,0.077,�k��,5.9,�L
2022/12/01,20:10,0.153,0.136,0.215,0.211,0.212,0.120,0.077,�k��,6.2,�L
2022/12/01,20:20,0.152,0.136,0.214,0.211,0.212,0.120,0.077,�k��,5.2,��
2022/12/01,20:30,0.152,0.137,0.214,0.210,0.211,0.121,0.077,�k��,5.5,��
2022/12/01,20:40,0.152,0.138,0.215,0.210,0.211,0.120,0.077,�k��,5.7,��
2022/12/01,20:50,0.153,0.137,0.214,0.211,0.212,0.120,0.076,�k��,5.3,��
2022/12/01,21:00,0.152,0.136,0.215,0.210,0.212,0.121,0.077,�k��,5.4,��
2022/12/01,21:10,0.152,0.136,0.215,0.210,0.212,0.121,0.077,�k��,5.5,��
2022/12/01,21:20,0.153,0.137,0.214,0.210,0.212,0.121,0.077,�k��,6.4,��
2022/12/01,21:30,0.152,0.137,0.215,0.211,0.212,0.120,0.077,�k��,6.6,��
2022/12/01,21:40,0.152,0.137,0.214,0.210,0.212,0.120,0.076,�k��,7.0,��
2022/12/01,21:50,0.153,0.138,0.215,0.210,0.212,0.120,0.077,�k�k��,7.0,��
2022/12/01,22:00,0.153,0.136,0.215,0.211,0.211,0.121,0.077,�k��,7.4,��
2022/12/01,22:10,0.152,0.136,0.215,0.211,0.211,0.121,0.077,�k��,7.4,��
2022/12/01,22:20,0.153,0.138,0.214,0.210,0.212,0.121,0.077,�k��,8.1,�L
2022/12/01,22:30,0.153,0.138,0.215,0.211,0.211,0.120,0.077,�k��,7.3,�L
2022/12/01,22:40,0.153,0.137,0.215,0.211,0.212,0.121,0.076,�k�k��,7.5,�L
2022/12/01,22:50,0.152,0.138,0.214,0.210,0.212,0.120,0.077,�k�k��,7.4,��
2022/12/01,23:00,0.153,0.138,0.215,0.211,0.212,0.121,0.078,�k��,8.3,��
2022/12/01,23:10,0.153,0.137,0.215,0.209,0.212,0.122,0.077,�k�k��,7.9,��
2022/12/01,23:20,0.153,0.137,0.215,0.211,0.211,0.121,0.077,�k�k��,8.1,��
2022/12/01,23:30,0.153,0.137,0.214,0.211,0.214,0.121,0.078,�k�k��,7.2,��
2022/12/01,23:40,0.152,0.137,0.214,0.211,0.212,0.121,0.077,�k��,7.3,��
2022/12/01,23:50,0.152,0.137,0.214,0.209,0.211,0.121,0.077,�k��,7.3,��
